Terminal Aerodrome Forecast
Issued by NWS

Home | Current Version | Previous Version | Graphics & Text | Print | Product List | Glossary Off
Versions: 1 2 3 4 5 6 7 8 9 10 11 12 13 14

000
FTUS43 KDDC 281734
TAFHYS
TAF
KHYS 281734Z 2818/2918 24010G16KT P6SM FEW200
     FM290000 VRB06KT P6SM SKC=

USA.gov is the U.S. government's official web portal to all federal, state and local government web resources and services.